TimeEDT,TemperatureF,Dew PointF,Humidity,Sea Level PressureIn,VisibilityMPH,Wind Direction,Wind SpeedMPH,Gust SpeedMPH,PrecipitationIn,Events,Conditions,WindDirDegrees,DateUTC
12:53 AM,60.1,55.0,83,30.22,10.0,Calm,Calm,-,N/A,,Clear,0,2013-05-27 04:53:00
1:53 AM,57.9,55.0,90,30.22,10.0,Calm,Calm,-,N/A,,Clear,0,2013-05-27 05:53:00
2:53 AM,57.0,54.0,89,30.20,10.0,Calm,Calm,-,N/A,,Clear,0,2013-05-27 06:53:00
3:53 AM,57.0,54.0,89,30.20,10.0,Calm,Calm,-,N/A,,Clear,0,2013-05-27 07:53:00
4:53 AM,57.0,54.0,89,30.21,10.0,Calm,Calm,-,N/A,,Clear,0,2013-05-27 08:53:00
5:53 AM,55.9,53.1,90,30.22,10.0,Calm,Calm,-,N/A,,Clear,0,2013-05-27 09:53:00
6:53 AM,57.0,54.0,89,30.24,9.0,Calm,Calm,-,N/A,,Clear,0,2013-05-27 10:53:00
7:53 AM,63.0,57.0,81,30.26,10.0,Calm,Calm,-,N/A,,Clear,0,2013-05-27 11:53:00
8:53 AM,70.0,60.1,71,30.26,10.0,Calm,Calm,-,N/A,,Clear,0,2013-05-27 12:53:00
9:53 AM,73.9,60.1,62,30.26,10.0,SSW,4.6,-,N/A,,Clear,200,2013-05-27 13:53:00
10:53 AM,77.0,59.0,54,30.25,10.0,SSW,6.9,-,N/A,,Clear,210,2013-05-27 14:53:00
11:53 AM,79.0,59.0,50,30.25,10.0,SSW,4.6,-,N/A,,Clear,200,2013-05-27 15:53:00
12:53 PM,81.0,60.1,49,30.23,10.0,Variable,5.8,-,N/A,,Clear,0,2013-05-27 16:53:00
1:53 PM,82.9,57.0,41,30.22,10.0,South,8.1,-,N/A,,Clear,170,2013-05-27 17:53:00
2:53 PM,84.0,57.9,41,30.20,10.0,Calm,Calm,-,N/A,,Clear,0,2013-05-27 18:53:00
3:53 PM,84.0,57.9,41,30.19,10.0,Calm,Calm,-,N/A,,Clear,0,2013-05-27 19:53:00
4:53 PM,82.9,57.9,42,30.17,10.0,South,8.1,-,N/A,,Partly Cloudy,170,2013-05-27 20:53:00
5:53 PM,84.0,59.0,43,30.15,10.0,South,6.9,-,N/A,,Scattered Clouds,180,2013-05-27 21:53:00
6:53 PM,82.9,60.1,46,30.15,10.0,SSE,5.8,-,N/A,,Clear,160,2013-05-27 22:53:00
7:53 PM,80.1,62.1,54,30.17,10.0,SSE,4.6,-,N/A,,Mostly Cloudy,150,2013-05-27 23:53:00
8:53 PM,75.9,64.0,67,30.18,10.0,SE,6.9,-,N/A,,Scattered Clouds,140,2013-05-28 00:53:00
9:53 PM,73.0,62.1,68,30.19,10.0,South,6.9,-,N/A,,Clear,170,2013-05-28 01:53:00
10:53 PM,71.1,62.1,73,30.21,10.0,SSE,6.9,-,N/A,,Clear,160,2013-05-28 02:53:00
11:53 PM,70.0,62.1,76,30.21,10.0,SSE,5.8,-,N/A,,Clear,160,2013-05-28 03:53:00